Location: Clermont
(50.2608°N, 4.3172°E)
Time: 16:38:52
(UTC+00:00)

Cosmos 1816 Rocket - Pass Details

Date: 13 August 2020
Orbit: 950 x 1000 km, 82.9° (Epoch: 18 September)

Event Time Altitude Azimuth Distance (km) Brightness Sun altitude
Rises 21:52:02 0° 350° (N) 3,702 8.8 -20.6°
Reaches altitude 10° 21:54:35 10° 352° (N) 2,742 7.8 -20.8°
Maximum altitude 22:00:52 80° 79° (E) 990 4.4 -21.3°
Enters shadow 22:03:13 41° 161° (SSE) 1,372 4.8 -21.5°
